Simultaneous Nadir Overpasses (SNOs) Predictions

Prediction of SNOs between AQUA and METOP-A Satellite Orbit:

Table of predicted SNOs for the next 14.0 days since TLE Epoch: 2/14/2014
Index Date (AQUA) Time (AQUA) Lat,Lon (AQUA) SZA (AQUA ) Date (METOP-A) Time (METOP-A) Lat,Lon (METOP-A) SZA (METOP-A ) Distance(km) Time Diff (sec)
1 02/15/2014 21:36:15 -73.91, 30.05 93.51 02/15/2014 21:35:49 -73.88, 29.99 93.52 3.11 26
2 02/15/2014 22:25:44 73.98,-162.48 86.56 02/15/2014 22:26:27 73.98,-162.44 86.56 1.11 43
3 02/18/2014 17:10:31 -73.92, 96.45 94.48 02/18/2014 17:10:09 -73.93, 96.51 94.47 2.32 22
4 02/18/2014 18:00:00 73.99, -96.08 85.59 02/18/2014 18:00:48 73.98, -96.05 85.57 2.18 48
5 02/21/2014 11:55:09 73.29, -3.40 83.85 02/21/2014 11:54:03 73.24, -6.02 83.93 84.19 66
6 02/21/2014 12:44:47 -73.94, 162.85 95.47 02/21/2014 12:44:31 -73.93, 162.89 95.48 2.21 16
7 02/21/2014 13:34:15 73.97, -29.58 84.55 02/21/2014 13:35:10 73.96, -29.68 84.54 3.24 55
8 02/24/2014 07:29:29 73.59, 62.43 83.13 02/24/2014 07:28:19 73.51, 61.01 83.14 45.49 70
9 02/24/2014 08:19:01 -73.92,-130.66 96.53 02/24/2014 08:18:53 -73.91,-130.74 96.53 2.95 8
10 02/24/2014 09:08:30 74.00, 36.79 83.55 02/24/2014 09:09:31 73.99, 36.79 83.53 1.35 61
11 02/27/2014 03:03:47 73.84, 128.34 82.35 02/27/2014 03:02:34 73.83, 128.15 82.36 5.72 73
12 02/27/2014 03:53:15 -73.96, -64.29 97.54 02/27/2014 03:53:14 -73.93, -64.28 97.57 2.75 1




NCC Satellite Simultaneous Nadir Overpasses (SNOs) Prediction Service
